This demonstration page uses our WeatherBlox Daily Observations layout. Learn more.

Left ArrowRight Arrow

34.74481, -87.66753

Hourly Observations for April 28, 2015

Temp ( °F °C ) Dew Point ( °F °C ) Humidity (%) Winds ( mph kmh ) Pressure ( in mb ) Visibility ( mi km ) Precip ( " mm )
12:53 am 00:53 Clear 55 12.8 40 4.4 57 57 VRB 5 7 29.94 1014 10 16 0.00 0.00
1:53 am 01:53 Clear 53 11.7 39 3.9 59 59 NNE 3 6 29.94 1014 10 16 0.00 0.00
2:53 am 02:53 Clear 51 10.6 39 3.9 64 64 ENE 3 6 29.94 1014 10 16 0.00 0.00
3:53 am 03:53 Clear 49 9.4 39 3.9 69 69 ENE 3 6 29.94 1014 10 16 0.00 0.00
4:53 am 04:53 Clear 46 7.8 39 3.9 77 77 ENE 3 6 29.94 1014 10 16 0.00 0.00
5:53 am 05:53 Clear 48 8.9 39 3.9 71 71 NE 5 7 29.93 1014 10 16 0.00 0.00
6:53 am 06:53 Sunny 50 10 40 4.4 68 68 VRB 5 7 29.95 1014 10 16 0.00 0.00
7:53 am 07:53 Sunny 53 11.7 40 4.4 61 61 NE 6 9 29.97 1015 10 16 0.00 0.00
8:53 am 08:53 Sunny 57 13.9 42 5.6 58 58 ENE 8 13 29.96 1015 10 16 0.00 0.00
9:53 am 09:53 Sunny 60 15.6 42 5.6 52 52 E 8 13 29.95 1014 10 16 0.00 0.00
10:53 am 10:53 Sunny 62 16.7 42 5.6 48 48 ENE 8 13 29.94 1014 10 16 0.00 0.00
11:53 am 11:53 Sunny 64 17.8 43 6.1 46 46 NE 8 13 29.93 1013 10 16 0.00 0.00
12:53 pm 12:53 Sunny 64 17.8 44 6.7 48 48 VRB 5 7 29.91 1013 10 16 0.00 0.00
1:53 pm 13:53 Sunny 65 18.3 45 7.2 49 49 N 3 6 29.91 1013 10 16 0.00 0.00
2:53 pm 14:53 Sunny 63 17.2 47 8.3 56 56 N 3 6 29.92 1013 10 16 0.00 0.00
3:53 pm 15:53 Mostly Cloudy 63 17.2 46 7.8 54 54 NNW 5 7 29.91 1013 10 16 0.00 0.00
4:53 pm 16:53 Mostly Cloudy 64 17.8 46 7.8 52 52 VRB 5 7 29.89 1012 10 16 0.00 0.00
5:53 pm 17:53 Partly Cloudy 64 17.8 43 6.1 46 46 ENE 7 11 29.87 1012 10 16 0.00 0.00
6:53 pm 18:53 Cloudy 62 16.7 42 5.6 48 48 ENE 7 11 29.85 1011 10 16 0.00 0.00
7:53 pm 19:53 Mostly Cloudy 61 16.1 43 6.1 52 52 N 5 7 29.87 1011 10 16 0.00 0.00
8:53 pm 20:53 Clear 59 15 43 6.1 56 56 Calm 29.90 1012 10 16 0.00 0.00
9:53 pm 21:53 Clear 58 14.4 44 6.7 60 60 N 6 9 29.89 1012 10 16 0.00 0.00
10:53 pm 22:53 Clear 57 13.9 44 6.7 62 62 N 5 7 29.90 1013 10 16 0.00 0.00
11:53 pm 23:53 Mostly Cloudy 56 13.3 45 7.2 67 67 S 5 7 29.91 1013 10 16 0.00 0.00

Powered by AerisWeather